STARLINK-1221, 45227

Orbit data source: Space-Track

STARLINK-1221, 45227 is a payload satellite owned by SpaceX/Seattle (US) in LEO that was launched on Mon, 17 Feb 2020 UTC via an FALCON 9 launch vehicle from the Air Force Eastern Test Range (AFETR). Payload-class satellites include a variety of spacecraft equipped with specific instruments for various scientific and technological missions. These include communications satellites like Starlink; space stations such as the ISS; scientific satellites like the Hubble; Earth observation satellites from companies like Planet Labs, Umbra, and HawkEye 360; GPS; miniature CubeSats for education and research; and military/defense satellites.

Loading next visibility...
Identifier
45227, 2020-012BB
Orbit
LEO
Country
Flag of USUS
Related business
Manufacturer
SpaceX/Seattle
Mission
Partially operational Commercial Communications
Bus & Motor
STARLINK, Unknown motor
Mass
260 kg wet, ~248 kg dry
Launch date (UTC)
2020-02-17 (7 years ago)
Launch vehicle
FALCON 9
Launch site
Air Force Eastern Test Range (AFETR)
Object type
Payload
Rocket body
Debris
Shape & HBR
Box + 1 Pan, 10.1 m
Radar Cross Section
13.562 m², Large (>1 m²)

Expand to show TLE details & history
Last TLE update: 1 day ago

TLE from 1 day ago
0 STARLINK-1221
1 45227U 20012BB  26252.89413889  .00017546  00000-0  30765-3 0  9999
2 45227  53.0608 112.0260 0002855 171.2461 188.8598 15.50678770365195
Epoch: 2026-09-09T21:27Z
TLE epoch observation values (Epoch: 2026-09-09T21:27:33.600Z)
Latitude
0.00003°
Longitude
161.19637°
Altitude
417.556 km
Speed
7.661 km/s
True Right ascension
07h 28m 06s
True Declination
0° 00' 00"
Sunlit
Object was in daylight at epoch
Visualization orbit readout
Latitude
Unknown
Longitude
Unknown
Altitude
Unknown
Speed
Unknown
Apparent Right ascension
Unknown
Apparent Declination
Unknown
Sunlit
N/A
Visualization observer readout
Local Sidereal Time
00:10:55
Azimuth
Unknown
Elevation
Unknown
Doppler factor
Unknown
Orbital elements
Apogee altitude
416.957 km
Perigee altitude
413.078 km
Semi-major axis
6,793.155 km
Eccentricity
0.00029
Inclination
53.0608°
RAAN
112.026°
Arg. of periapsis
171.2461°
True anomaly
188.85476°
Mean anomaly
188.8598°
Eccentric anomaly
188.85728°
Mean motion
3.87647 °/min
Orbital period
92.87 mins
BSTAR
0.00030765
Loading maneuver chart data...
Computing Atmospheric mass density...

Documentation

Showing up to 5 results
|